Location: Hopewell Observatory
(38.8698°N, 77.6988°W)
Time: 16:57:08
(UTC-04:00)

Amateur Radio Satellites - All Passes

Search period start: 19 April 2014 16:27
Search period end: 20 April 2014 16:27
Location: Hopewell Observatory, 38.8698°N, 77.6988°W

Satellite Date Start Highest point End Downlink Frequencies (MHz)
Time Altitude Azimuth
AO-7 19 Apr 16:49:23 16:57:40 89° 252° (WSW) 17:06:00 29.400 - 29.500 MHz
SO-50 19 Apr 16:50:46 16:54:51 34° 309° (NW) 16:58:58 436.795 FM
OPAL 19 Apr 17:04:56 17:09:19 28° 295° (WNW) 17:13:41 ?
JAS-1B 19 Apr 17:08:15 17:16:02 43° 260° (W) 17:22:39 435.800 - 435.900 CW/SSB
RS-15 19 Apr 17:22:02 17:32:46 64° 246° (WSW) 17:43:49 29.354 - 29.394 USB, Beacon 29.352 USB
Hamsat 19 Apr 17:23:57 17:25:20 11° 64° (ENE) 17:26:43 145.90 MHz
ISS 19 Apr 17:25:56 17:28:14 17° 338° (NNW) 17:30:32 145.800 FM
UOSAT-12 19 Apr 17:33:06 17:37:16 37° 114° (ESE) 17:41:32 437.025 FM, 437.400 FM
Uosat F 19 Apr 17:53:33 17:55:55 13° 269° (W) 17:58:17 435.120 FM
JAS-2 19 Apr 18:40:29 18:45:32 31° 69° (ENE) 18:50:13 435.800 - 435.900 CW/SSB, 435.910 FM
SO-67 19 Apr 18:44:55 18:46:44 14° 68° (ENE) 18:48:33 435.3500 MHz FM
AO-7 19 Apr 18:46:42 18:51:26 16° 269° (W) 18:56:11 29.400 - 29.500 MHz
Hamsat 19 Apr 18:56:39 19:00:47 60° 260° (W) 19:04:59 145.90 MHz
UOSAT-12 19 Apr 19:13:43 19:17:30 25° 312° (NW) 19:21:22 437.025 FM, 437.400 FM
Saudisat 1A 19 Apr 19:22:31 19:25:46 20° 46° (NE) 19:28:59 436.775 MHz
HO-68 19 Apr 19:24:23 19:25:34 11° 50° (NE) 19:26:46 435.675 MHz FM
RS-15 19 Apr 19:41:07 19:42:49 10° 265° (W) 19:44:32 29.354 - 29.394 USB, Beacon 29.352 USB
STRAND 1 19 Apr 19:42:32 19:47:35 60° 101° (E) 19:52:35 ?
SO-67 19 Apr 20:16:28 20:19:36 31° 263° (W) 20:22:45 435.3500 MHz FM
JAS-2 19 Apr 20:25:23 20:30:36 32° 262° (W) 20:35:25 435.800 - 435.900 CW/SSB, 435.910 FM
ISS 19 Apr 20:41:56 20:44:01 15° 19° (NNE) 20:46:05 145.800 FM
Saudisat 1A 19 Apr 21:01:23 21:05:37 47° 244° (WSW) 21:09:47 436.775 MHz
HO-68 19 Apr 21:04:50 21:11:48 59° 69° (ENE) 21:18:47 435.675 MHz FM
STRAND 1 19 Apr 21:23:11 21:26:15 16° 297° (WNW) 21:29:19 ?
FUNcube-1 19 Apr 22:00:56 22:03:52 19° 68° (ENE) 22:06:47 145.950 - 145.970 MHz USB
Oscar 11 19 Apr 22:08:29 22:12:47 78° 76° (ENE) 22:17:06 145.825 FM, Beacon 2401.500 USB
MaSat-1 19 Apr 22:14:01 22:16:54 45° 296° (WNW) 22:19:27 437.345 MHz
ISS 19 Apr 22:17:53 22:21:15 73° 38° (NE) 22:24:35 145.800 FM
HO-68 19 Apr 22:54:16 22:59:51 25° 266° (W) 23:05:30 435.675 MHz FM
PCSat 19 Apr 23:27:51 23:29:23 11° 102° (ESE) 23:30:55 145.825 MHz
FUNcube-1 19 Apr 23:36:15 23:40:04 33° 262° (W) 23:43:52 145.950 - 145.970 MHz USB
SO-50 19 Apr 23:43:21 23:46:45 20° 46° (NE) 23:50:10 436.795 FM
ISS 19 Apr 23:56:33 23:57:32 11° 233° (SW) 23:58:32 145.800 FM
Sapphire 20 Apr 00:22:22 00:27:15 36° 110° (ESE) 00:32:10 437.095 MHz 1200 baud AX-25 AFSK
PCSat 20 Apr 01:06:35 01:11:59 86° 298° (WNW) 01:17:26 145.825 MHz
SO-50 20 Apr 01:23:04 01:27:37 54° 243° (WSW) 01:32:13 436.795 FM
Oscar 10/S400 20 Apr 01:46:41 02:01:20 22° 132° (SE) 02:27:31 145.825 - 145.975 CW/USB, Beacon 145.810 USB
UOSAT-12 20 Apr 02:03:53 02:07:52 26° 48° (NE) 02:11:48 437.025 FM, 437.400 FM
Sapphire 20 Apr 02:05:55 02:10:41 31° 307° (NW) 02:15:29 437.095 MHz 1200 baud AX-25 AFSK
AO-27 20 Apr 02:11:45 02:14:56 16° 92° (E) 02:18:07 436.795 MHz FM
ITAMSAT 1 20 Apr 02:21:51 02:25:38 20° 94° (E) 02:29:25 435.822 SSB
KITSAT 1 20 Apr 02:23:34 02:30:51 38° 108° (ESE) 02:38:08 435.175 FM
Oscar 19 20 Apr 02:24:48 02:29:45 43° 99° (E) 02:34:40 437.125 CW, 437.150 USB
AO-Echo 20 Apr 02:24:53 02:27:42 16° 92° (E) 02:30:30 ?
Oscar 16 20 Apr 02:33:03 02:38:10 56° 101° (E) 02:43:15 437.025 USB, Beacon 2401.1428
OPAL 20 Apr 02:39:32 02:44:24 54° 70° (ENE) 02:49:23 ?
PCSat 20 Apr 02:53:22 02:56:13 14° 317° (NW) 02:59:06 145.825 MHz
Uribyol 2 20 Apr 03:09:08 03:14:16 63° 102° (ESE) 03:19:24 436.500 FM
UOSAT-12 20 Apr 03:43:45 03:48:06 38° 245° (WSW) 03:52:24 437.025 FM, 437.400 FM
Gurwin Techsat 1B 20 Apr 03:45:01 03:50:01 41° 98° (E) 03:54:58 435.225 FM
AO-27 20 Apr 03:49:43 03:54:47 56° 288° (WNW) 03:59:49 436.795 MHz FM
ITAMSAT 1 20 Apr 04:00:25 04:05:19 45° 289° (WNW) 04:10:13 435.822 SSB
AO-Echo 20 Apr 04:02:11 04:06:47 48° 288° (WNW) 04:11:17 ?
Oscar 19 20 Apr 04:04:49 04:08:47 23° 295° (WNW) 04:12:45 437.125 CW, 437.150 USB
Oscar 16 20 Apr 04:13:39 04:17:03 18° 297° (WNW) 04:20:26 437.025 USB, Beacon 2401.1428
KITSAT 1 20 Apr 04:18:15 04:26:02 49° 307° (NW) 04:33:52 435.175 FM
OPAL 20 Apr 04:20:30 04:23:37 16° 266° (W) 04:26:46 ?
Uosat F 20 Apr 04:21:36 04:25:25 22° 94° (E) 04:29:12 435.120 FM
TMSAT-1 20 Apr 04:32:40 04:37:59 82° 103° (ESE) 04:43:17 436.925 FM
Uribyol 2 20 Apr 04:50:10 04:53:12 16° 298° (WNW) 04:56:14 436.500 FM
AO-7 20 Apr 04:52:53 05:00:14 34° 97° (E) 05:07:32 29.400 - 29.500 MHz
JAS-1B 20 Apr 04:54:09 04:59:44 57° 101° (ESE) 05:05:36 435.800 - 435.900 CW/SSB
Gurwin Techsat 1B 20 Apr 05:25:31 05:29:43 24° 294° (WNW) 05:33:54 435.225 FM
RS-15 20 Apr 05:34:46 05:42:56 24° 102° (ESE) 05:50:52 29.354 - 29.394 USB, Beacon 29.352 USB
Uosat F 20 Apr 05:59:40 06:04:19 40° 290° (WNW) 06:08:57 435.120 FM
TMSAT-1 20 Apr 06:14:59 06:17:10 13° 300° (WNW) 06:19:22 436.925 FM
KITSAT 1 20 Apr 06:19:46 06:23:44 14° 332° (NNW) 06:27:42 435.175 FM
MaSat-1 20 Apr 06:38:35 06:40:39 17° 61° (ENE) 06:42:57 437.345 MHz
Hamsat 20 Apr 06:44:07 06:47:48 26° 95° (E) 06:51:28 145.90 MHz
AO-7 20 Apr 06:45:15 06:53:12 53° 295° (WNW) 07:01:10 29.400 - 29.500 MHz
JAS-1B 20 Apr 06:46:19 06:50:00 18° 298° (WNW) 06:53:44 435.800 - 435.900 CW/SSB
STRAND 1 20 Apr 06:57:12 07:02:18 76° 75° (ENE) 07:07:25 ?
JAS-2 20 Apr 07:34:04 07:38:52 30° 97° (E) 07:44:05 435.800 - 435.900 CW/SSB, 435.910 FM
RS-15 20 Apr 07:42:33 07:53:57 84° 301° (WNW) 08:05:00 29.354 - 29.394 USB, Beacon 29.352 USB
SO-67 20 Apr 07:42:36 07:45:08 19° 94° (E) 07:47:38 435.3500 MHz FM
PCSat 20 Apr 08:16:08 08:16:37 10° 39° (NE) 08:17:05 145.825 MHz
MaSat-1 20 Apr 08:16:29 08:19:00 22° 249° (WSW) 08:21:51 437.345 MHz
Hamsat 20 Apr 08:20:06 08:23:41 26° 290° (WNW) 08:27:17 145.90 MHz
STRAND 1 20 Apr 08:40:28 08:42:01 11° 270° (W) 08:43:35 ?
AO-7 20 Apr 08:42:21 08:44:05 11° 315° (NW) 08:45:48 29.400 - 29.500 MHz
Sapphire 20 Apr 09:11:36 09:16:00 25° 50° (NE) 09:20:23 437.095 MHz 1200 baud AX-25 AFSK
SO-67 20 Apr 09:15:28 09:18:13 22° 289° (WNW) 09:20:58 435.3500 MHz FM
JAS-2 20 Apr 09:19:08 09:23:57 34° 291° (WNW) 09:29:11 435.800 - 435.900 CW/SSB, 435.910 FM
PANSAT 20 Apr 09:53:18 09:55:50 17° 175° (S) 09:58:23 not established
PCSat 20 Apr 09:55:52 10:01:13 58° 59° (ENE) 10:06:32 145.825 MHz
Oscar 11 20 Apr 09:58:46 10:01:25 16° 93° (E) 10:04:03 145.825 FM, Beacon 2401.500 USB
RS-15 20 Apr 09:59:01 10:08:06 28° 327° (NNW) 10:17:06 29.354 - 29.394 USB, Beacon 29.352 USB
KITSAT 1 20 Apr 10:18:09 10:23:30 19° 35° (NE) 10:28:49 435.175 FM
HO-68 20 Apr 10:21:11 10:28:22 69° 104° (ESE) 10:35:30 435.675 MHz FM
Sapphire 20 Apr 10:54:28 10:59:40 48° 248° (WSW) 11:04:50 437.095 MHz 1200 baud AX-25 AFSK
Saudisat 1A 20 Apr 11:06:24 11:10:47 60° 118° (ESE) 11:15:12 436.775 MHz
FUNcube-1 20 Apr 11:26:07 11:30:14 47° 99° (E) 11:34:27 145.950 - 145.970 MHz USB
PANSAT 20 Apr 11:33:06 11:35:25 15° 188° (S) 11:37:44 not established
Oscar 11 20 Apr 11:33:40 11:37:47 42° 288° (WNW) 11:41:54 145.825 FM, Beacon 2401.500 USB
PCSat 20 Apr 11:40:34 11:44:08 18° 255° (WSW) 11:47:41 145.825 MHz
HO-68 20 Apr 12:10:04 12:15:24 23° 301° (WNW) 12:20:44 435.675 MHz FM
KITSAT 1 20 Apr 12:12:25 12:20:32 69° 58° (ENE) 12:28:32 435.175 FM
RS-15 20 Apr 12:19:34 12:25:55 16° 3° (N) 12:32:15 29.354 - 29.394 USB, Beacon 29.352 USB
Saudisat 1A 20 Apr 12:47:51 12:50:46 17° 316° (NW) 12:53:42 436.775 MHz
Uribyol 2 20 Apr 12:52:02 12:52:20 10° 59° (ENE) 12:52:38 436.500 FM
FUNcube-1 20 Apr 13:03:55 13:06:17 15° 294° (WNW) 13:08:41 145.950 - 145.970 MHz USB
AO-27 20 Apr 13:28:35 13:32:36 23° 66° (ENE) 13:36:38 436.795 MHz FM
AO-Echo 20 Apr 13:36:11 13:40:03 21° 66° (ENE) 13:43:51 ?
ITAMSAT 1 20 Apr 13:38:37 13:42:59 28° 67° (ENE) 13:47:20 435.822 SSB
Oscar 19 20 Apr 13:40:26 13:45:25 55° 72° (ENE) 13:50:27 437.125 CW, 437.150 USB
Oscar 16 20 Apr 13:48:46 13:53:52 71° 74° (ENE) 13:59:01 437.025 USB, Beacon 2401.1428
KITSAT 1 20 Apr 14:09:01 14:15:11 25° 256° (WSW) 14:21:20 435.175 FM
TMSAT-1 20 Apr 14:15:36 14:18:15 14° 61° (ENE) 14:20:55 436.925 FM
Uribyol 2 20 Apr 14:25:48 14:30:58 84° 75° (ENE) 14:36:09 436.500 FM
RS-15 20 Apr 14:33:46 14:43:17 32° 38° (NE) 14:52:54 29.354 - 29.394 USB, Beacon 29.352 USB
OPAL 20 Apr 14:52:00 14:55:10 16° 94° (E) 14:58:20 ?
ISS 20 Apr 14:59:30 15:02:43 47° 137° (SE) 15:05:57 145.800 FM
Gurwin Techsat 1B 20 Apr 15:04:49 15:10:00 57° 73° (ENE) 15:15:12 435.225 FM
AO-27 20 Apr 15:06:58 15:11:51 41° 261° (W) 15:16:45 436.795 MHz FM
AO-Echo 20 Apr 15:13:29 15:18:30 45° 261° (W) 15:23:26 ?
ITAMSAT 1 20 Apr 15:17:42 15:22:20 33° 263° (W) 15:27:00 435.822 SSB
Oscar 19 20 Apr 15:21:53 15:25:05 17° 268° (W) 15:28:18 437.125 CW, 437.150 USB
Oscar 16 20 Apr 15:31:39 15:33:43 12° 270° (W) 15:35:47 437.025 USB, Beacon 2401.1428
Uosat F 20 Apr 15:33:42 15:37:53 27° 67° (ENE) 15:42:05 435.120 FM
SO-50 20 Apr 15:36:48 15:41:14 67° 119° (ESE) 15:45:43 436.795 FM
JAS-1B 20 Apr 15:36:49 15:44:30 49° 71° (ENE) 15:50:58 435.800 - 435.900 CW/SSB
AO-7 20 Apr 15:50:32 15:58:07 42° 62° (ENE) 16:05:42 29.400 - 29.500 MHz
TMSAT-1 20 Apr 15:52:14 15:57:31 74° 258° (WSW) 16:02:50 436.925 FM
Uribyol 2 20 Apr 16:10:37 16:11:02 10° 271° (W) 16:11:27 436.500 FM
